Regional Weather Roundup
Issued by NWS San Angelo, TX

Home | Current Version | Previous Version | Text Only | Print | Product List | Glossary On
Versions: 1 2 3 4 5 6 7 8 9 10 11 12 13 14 15 16 17 18 19 20 21 22 23 24 25 26 27 28 29 30 31 32 33 34 35 36 37 38 39 40 41 42 43 44 45 46 47 48 49 50
000
ASUS44 KSJT 191758
RWRSJT
WEST CENTRAL TEXAS REGIONAL WEATHER ROUNDUP
NATIONAL WEATHER SERVICE SAN ANGELO TX
1200 PM CST SUN FEB 19 2017

NOTE: "FAIR" INDICATES FEW OR NO CLOUDS BELOW 12,000 FEET WITH NO
SIGNIFICANT WEATHER AND/OR OBSTRUCTIONS TO VISIBILITY.

TXZ049-054-064>066-071>073-076>078-098-099-113-114-127-128-139-140-
154-155-168>170-191900
...LOCATIONS ACROSS WEST CENTRAL TEXAS...

CITY           SKY/WX    TMP DP  RH WIND       PRES   REMARKS
SAN ANGELO     CLOUDY    72  60  66 S14       29.86S
ABILENE        CLOUDY    68  60  75 S12       29.86F
DYESS AFB      NOT AVBL
JUNCTION       CLOUDY    72  63  73 S13G21    29.84F
SWEETWATER     NOT AVBL
BROWNWOOD      NOT AVBL
COLEMAN        NOT AVBL
SONORA         NOT AVBL
OZONA          NOT AVBL
BRADY          NOT AVBL
$$

TEXAS PANHANDLE/OKLAHOMA PANHANDLE

CITY           SKY/WX    TMP DP  RH WIND       PRES   REMARKS
AMARILLO       MOSUNNY   60  51  72 S17       29.84F
BORGER         SUNNY     66  52  60 S20G25    29.81F
CANADIAN       NOT AVBL
DALHART        PTSUNNY   58  42  55 S16       29.81F
DUMAS          NOT AVBL
GUYMON         NOT AVBL
HEREFORD       NOT AVBL
PAMPA          NOT AVBL
PERRYTON       NOT AVBL
$$

SOUTHERN PANHANDLE/SOUTH PLAINS/ROLLING PLAINS

CITY           SKY/WX    TMP DP  RH WIND       PRES   REMARKS
LUBBOCK        PTSUNNY   66  38  35 S7        29.84S
SNYDER         NOT AVBL
CHILDRESS      SUNNY     63  54  72 S14       29.86F
SEMINOLE       NOT AVBL
$$

PERMIAN BASIN

CITY           SKY/WX    TMP DP  RH WIND       PRES   REMARKS
MIDLAND        CLOUDY    69  34  27 SW7       29.86F
ODESSA         CLOUDY    70  33  25 W13       29.87S
WINK           CLOUDY    64  32  30 W15       29.87R
$$

FAR WEST/SOUTHWEST MOUNTAINS/TRANS PECOS

CITY           SKY/WX    TMP DP  RH WIND       PRES   REMARKS
ALPINE         NOT AVBL
DRYDEN         NOT AVBL
EL PASO        MOSUNNY   54  30  40 W17       29.94R
FORT STOCKTON  CLOUDY    67  34  29 SW13      29.88F
GUADALUPE PASS NOT AVBL
MARFA          NOT AVBL
PECOS          NOT AVBL
$$

DALLAS/FORT WORTH METROPLEX

CITY           SKY/WX    TMP DP  RH WIND       PRES   REMARKS
DFW AIRPORT    CLOUDY    71  66  84 SE14      29.89F HAZE
FTW MEACHAM    CLOUDY    70  65  84 E8        29.89F HAZE
DAL-EXECUTIVE  CLOUDY    70  66  87 SE10      29.90F FOG
GRAND PRAIRIE  PTSUNNY   72  64  78 SE12      29.91F FOG
ADDISON        CLOUDY    72  64  78 SE12G18   29.91F HAZE
MESQUITE       NOT AVBL
LANCASTER      NOT AVBL
$$

NORTH CENTRAL TEXAS

CITY           SKY/WX    TMP DP  RH WIND       PRES   REMARKS
SHRMAN/DENISON NOT AVBL
GAINESVILLE    NOT AVBL
BRIDGEPORT     NOT AVBL
DENTON         CLOUDY    67  65  93 SE8       29.90F FOG
WAXAHACHIE     NOT AVBL
GRANBURY       NOT AVBL
$$

WESTERN NORTH TEXAS

CITY           SKY/WX    TMP DP  RH WIND       PRES   REMARKS
WICHITA FALLS  CLOUDY    73  58  59 S23G29    29.87S
VERNON         NOT AVBL
BRECKENRIDGE   NOT AVBL
COMANCHE       NOT AVBL
$$

CENTRAL AND SOUTH CENTRAL TEXAS

CITY           SKY/WX    TMP DP  RH WIND       PRES   REMARKS
AUSTIN/BERGSTM CLOUDY    79  67  66 SE21      29.84F
WACO           CLOUDY    74  67  78 SE16      29.87F
HILLSBORO      NOT AVBL
TEMPLE         CLOUDY    74  67  78 SE20G25   29.87F
KILLEEN-GRAY   NOT AVBL
FORT HOOD      NOT AVBL
GEORGETOWN     PTSUNNY   75  64  69 SE14G25   29.86F
LAGO VISTA     NOT AVBL
SAN MARCOS     PTSUNNY   77  66  69 SE20      29.86F FOG
NEW BRAUNFELS  CLOUDY    77  66  68 S16G25    29.85F
RANDOLPH AFB   PTSUNNY   77  68  73 SE15      29.85S
SAN ANTONIO    CLOUDY    75  66  73 SE14G25   29.86S
STINSON        CLOUDY    78  67  68 S12       29.83F
PLEASANTON     NOT AVBL
LA GRANGE      NOT AVBL
GIDDINGS       NOT AVBL
$$

EAST TEXAS

CITY           SKY/WX    TMP DP  RH WIND       PRES   REMARKS
PARIS          NOT AVBL
CLARKSVILLE    NOT AVBL
TYLER          CLOUDY    74  65  73 SE18G24   29.94F
LONGVIEW       PTSUNNY   75  65  70 SE12      29.96F
PALESTINE      NOT AVBL
NACOGDOCHES    NOT AVBL
$$

TEXAS HILL COUNTRY AND EDWARDS PLATEAU

CITY           SKY/WX    TMP DP  RH WIND       PRES   REMARKS
LLANO          NOT AVBL
HORSESHOE BAY  NOT AVBL
KERRVILLE      NOT AVBL
FREDERICKSBRG  NOT AVBL
ROCKSPRINGS    NOT AVBL
HONDO            N/A     78  68  71 MISG      29.83F
UVALDE         NOT AVBL
DEL RIO        MOSUNNY   76  64  66 S9        29.79F
$$

SOUTHEAST TEXAS

CITY           SKY/WX    TMP DP  RH WIND       PRES   REMARKS
COLLEGE STN    PTSUNNY   78  67  68 SE21G31   29.89F
CALDWELL       NOT AVBL
CROCKETT       NOT AVBL
BRENHAM        NOT AVBL
HUNTSVILLE     CLOUDY    72  67  84 SE10      29.94F
CONROE         CLOUDY    71  68  90 SE14      29.95F FOG
HOUSTON BUSH   CLOUDY    72  68  87 SE21G28   29.95F FOG
HOUSTON HOBBY  CLOUDY    72  68  87 SE9G21    29.94F
PERLAND        CLOUDY    76  68  76 SE15      29.96F
WHARTON        NOT AVBL
$$

THE UPPER TEXAS COAST

CITY           SKY/WX    TMP DP  RH WIND       PRES   REMARKS
ORANGE         NOT AVBL
PORT ARTHUR    CLOUDY    74  67  78 SE14G23   29.98F
GALVESTON      SUNNY     74  69  85 SE16      29.96F
ANGLETON       CLOUDY    75  69  81 SE15      29.94F
BAY CITY       NOT AVBL
$$

TEXAS COASTAL BEND, RIO GRANDE PLAINS DEEP SOUTH TEXAS

CITY           SKY/WX    TMP DP  RH WIND       PRES   REMARKS
VICTORIA       CLOUDY    76  69  79 SE26      29.88S
BEEVILLE       NOT AVBL
ROCKPORT       CLOUDY    73  69  87 SE17      29.87R
PORT ARANSAS   NOT AVBL
PORT LAVACA    NOT AVBL
CORPUS CHRISTI CLOUDY    78  70  76 SE22G33   29.84S
KINGSVILLE NAS CLOUDY    80  72  76 SE20G30   29.83F
COTULLA        CLOUDY    79  65  62 SE8       29.81F
LAREDO         NOT AVBL
BROWNSVILLE    CLOUDY    81  71  71 S25G33    29.83F
PORT ISABEL    NOT AVBL
HEBBRONVILLE   NOT AVBL
MCALLEN        PTSUNNY   87  67  51 SE18      29.79F
WESLACO        NOT AVBL
FALFURRIAS     NOT AVBL
EDINBURG       NOT AVBL
$$




USA.gov is the U.S. government's official web portal to all federal, state and local government web resources and services.